BKP167 VTBS-VTSM

Flight info

Callsign BKP167
Flight time 0h 46m
Altitude 33000
Route KASNI1J KASNI M757 MABKO W33 UPNEP
Aircraft A319/M-SDE3FGHIRWY/LB1

Departure

Time 2026-04-26 10:40
Airport Suvarnabhumi Airport (VTBS)

Arrival

Time 2026-04-26 11:26
Airport Samui International Airport (VTSM)
Time Latitude Longitude Altitude Speed Heading
2026-04-26 10:12 13.69444 100.75577 13 ft 0 kts 284°
2026-04-26 10:31 13.69438 100.75600 16 ft 4 kts 285°
2026-04-26 10:31 13.69431 100.75627 14 ft 4 kts 284°
2026-04-26 10:31 13.69425 100.75654 13 ft 4 kts 274°
2026-04-26 10:32 13.69428 100.75677 13 ft 4 kts 218°
2026-04-26 10:32 13.69447 100.75685 14 ft 2 kts 194°
2026-04-26 10:32 13.69448 100.75685 14 ft 0 kts 194°
2026-04-26 10:36 13.69446 100.75685 13 ft 1 kts 194°
2026-04-26 10:36 13.69431 100.75681 13 ft 3 kts 194°
2026-04-26 10:36 13.69400 100.75673 13 ft 6 kts 194°
2026-04-26 10:36 13.69352 100.75660 13 ft 8 kts 194°
2026-04-26 10:37 13.69287 100.75643 13 ft 11 kts 194°
2026-04-26 10:37 13.69207 100.75623 15 ft 12 kts 187°
2026-04-26 10:37 13.69154 100.75669 13 ft 11 kts 104°
2026-04-26 10:37 13.69139 100.75730 13 ft 10 kts 104°
2026-04-26 10:38 13.69120 100.75806 16 ft 12 kts 105°
2026-04-26 10:38 13.69099 100.75893 13 ft 10 kts 104°
2026-04-26 10:38 13.69082 100.75960 13 ft 10 kts 105°
2026-04-26 10:38 13.69065 100.76026 13 ft 11 kts 105°
2026-04-26 10:39 13.69046 100.76069 14 ft 5 kts 148°
2026-04-26 10:39 13.69024 100.76066 13 ft 2 kts 193°
2026-04-26 10:39 13.68887 100.76030 15 ft 46 kts 194°
2026-04-26 10:39 13.68399 100.75903 14 ft 100 kts 194°
2026-04-26 10:40 13.67553 100.75681 12 ft 150 kts 194°
2026-04-26 10:40 13.66509 100.75408 493 ft 154 kts 193°
2026-04-26 10:40 13.65433 100.75197 1043 ft 159 kts 184°
2026-04-26 10:40 13.64303 100.75175 1638 ft 165 kts 179°
2026-04-26 10:41 13.63105 100.75187 1993 ft 183 kts 179°
2026-04-26 10:41 13.61751 100.75205 2206 ft 209 kts 179°
2026-04-26 10:41 13.60206 100.75247 2565 ft 234 kts 174°
2026-04-26 10:41 13.58521 100.75544 3032 ft 256 kts 165°
2026-04-26 10:42 13.56798 100.76056 3801 ft 265 kts 162°
2026-04-26 10:42 13.55038 100.76641 4756 ft 267 kts 162°
2026-04-26 10:42 13.53249 100.77232 5622 ft 273 kts 163°
2026-04-26 10:42 13.51420 100.77814 6457 ft 278 kts 163°
2026-04-26 10:43 13.49549 100.78383 7272 ft 282 kts 165°
2026-04-26 10:43 13.47603 100.78678 8066 ft 286 kts 184°
2026-04-26 10:43 13.45643 100.78279 8861 ft 290 kts 195°
2026-04-26 10:43 13.43688 100.77741 9689 ft 293 kts 196°
2026-04-26 10:44 13.41727 100.77193 10291 ft 303 kts 195°
2026-04-26 10:44 13.39620 100.76602 10531 ft 325 kts 195°
2026-04-26 10:44 13.37403 100.75980 11045 ft 334 kts 195°
2026-04-26 10:44 13.35150 100.75349 11695 ft 338 kts 196°
2026-04-26 10:45 13.32869 100.74713 12353 ft 342 kts 196°
2026-04-26 10:45 13.30566 100.74073 13028 ft 345 kts 196°
2026-04-26 10:45 13.28239 100.73428 13682 ft 348 kts 196°
2026-04-26 10:45 13.25890 100.72777 14231 ft 352 kts 195°
2026-04-26 10:46 13.23541 100.72125 14760 ft 356 kts 195°
2026-04-26 10:46 13.21138 100.71459 15304 ft 360 kts 195°
2026-04-26 10:46 13.18704 100.70786 15841 ft 364 kts 195°
2026-04-26 10:46 13.16248 100.70104 16373 ft 368 kts 195°
2026-04-26 10:47 13.13764 100.69413 16909 ft 371 kts 196°
2026-04-26 10:47 13.11257 100.68716 17436 ft 375 kts 196°
2026-04-26 10:47 13.08716 100.68046 17966 ft 379 kts 192°
2026-04-26 10:47 13.06081 100.67767 18439 ft 383 kts 182°
2026-04-26 10:48 13.03400 100.67704 18892 ft 387 kts 181°
2026-04-26 10:48 13.00700 100.67638 19356 ft 390 kts 181°
2026-04-26 10:48 12.98014 100.67570 19812 ft 393 kts 181°
2026-04-26 10:48 12.95271 100.67500 20279 ft 396 kts 181°
2026-04-26 10:49 12.92508 100.67429 20727 ft 399 kts 182°
2026-04-26 10:49 12.89721 100.67357 21159 ft 403 kts 181°
2026-04-26 10:49 12.86909 100.67282 21600 ft 406 kts 181°
2026-04-26 10:49 12.84069 100.67203 22011 ft 410 kts 181°
2026-04-26 10:50 12.81209 100.67125 22445 ft 413 kts 181°
2026-04-26 10:50 12.79299 100.67074 22744 ft 415 kts 181°
2026-04-26 10:50 12.75464 100.66972 23337 ft 418 kts 181°
2026-04-26 10:50 12.72542 100.66895 23707 ft 421 kts 181°
2026-04-26 10:51 12.69601 100.66819 24074 ft 424 kts 181°
2026-04-26 10:51 12.63672 100.66667 24776 ft 429 kts 181°
2026-04-26 10:51 12.60675 100.66589 25120 ft 432 kts 181°
2026-04-26 10:52 12.57665 100.66512 25470 ft 434 kts 181°
2026-04-26 10:52 12.54638 100.66435 25813 ft 437 kts 181°
2026-04-26 10:52 12.51636 100.66357 26150 ft 439 kts 181°
2026-04-26 10:52 12.48575 100.66277 26486 ft 441 kts 181°
2026-04-26 10:53 12.45498 100.66196 26816 ft 444 kts 181°
2026-04-26 10:53 12.42403 100.66115 27144 ft 446 kts 181°
2026-04-26 10:53 12.39289 100.66031 27475 ft 449 kts 181°
2026-04-26 10:54 12.33018 100.65861 28121 ft 453 kts 181°
2026-04-26 10:54 12.29856 100.65780 28439 ft 456 kts 181°
2026-04-26 10:54 12.26678 100.65699 28757 ft 458 kts 181°
2026-04-26 10:54 12.23485 100.65621 29072 ft 461 kts 181°
2026-04-26 10:55 12.20314 100.65544 29380 ft 463 kts 181°
2026-04-26 10:55 12.17087 100.65463 29706 ft 465 kts 180°
2026-04-26 10:55 12.13842 100.65376 29981 ft 468 kts 181°
2026-04-26 10:55 12.10576 100.65287 30249 ft 470 kts 181°
2026-04-26 10:56 12.07302 100.65201 30510 ft 472 kts 181°
2026-04-26 10:56 12.04013 100.65116 30781 ft 474 kts 181°
2026-04-26 10:56 12.00711 100.65032 31035 ft 476 kts 181°
2026-04-26 10:56 11.97396 100.64949 31289 ft 477 kts 181°
2026-04-26 10:57 11.94113 100.64867 31535 ft 479 kts 181°
2026-04-26 10:57 11.90786 100.64785 31890 ft 478 kts 181°
2026-04-26 10:57 11.87467 100.64703 32268 ft 477 kts 181°
2026-04-26 10:57 11.84154 100.64620 32643 ft 476 kts 181°
2026-04-26 10:58 11.80846 100.64536 32821 ft 474 kts 181°
2026-04-26 10:58 11.77591 100.64452 32863 ft 461 kts 181°
2026-04-26 10:58 11.74428 100.64372 32862 ft 449 kts 181°
2026-04-26 10:58 11.71331 100.64293 32862 ft 443 kts 181°
2026-04-26 10:59 11.65185 100.64136 32862 ft 441 kts 181°
2026-04-26 10:59 11.59103 100.63983 32863 ft 440 kts 181°
2026-04-26 11:00 11.52982 100.63828 32871 ft 440 kts 180°
2026-04-26 11:00 11.46859 100.63675 32869 ft 440 kts 181°
2026-04-26 11:01 11.40741 100.63518 32868 ft 440 kts 181°
2026-04-26 11:01 11.37721 100.63441 32708 ft 440 kts 180°
2026-04-26 11:01 11.34665 100.63363 32457 ft 439 kts 181°
2026-04-26 11:02 11.31619 100.63284 32213 ft 437 kts 180°
2026-04-26 11:02 11.28581 100.63208 31972 ft 436 kts 180°
2026-04-26 11:02 11.25549 100.63136 31730 ft 435 kts 180°
2026-04-26 11:02 11.22529 100.63064 31490 ft 434 kts 180°
2026-04-26 11:03 11.19514 100.62989 31246 ft 433 kts 180°
2026-04-26 11:03 11.16508 100.62911 31028 ft 431 kts 180°
2026-04-26 11:03 11.13556 100.62835 30796 ft 430 kts 180°
2026-04-26 11:03 11.10567 100.62757 30558 ft 429 kts 180°
2026-04-26 11:04 11.07587 100.62680 30330 ft 428 kts 180°
2026-04-26 11:04 11.04617 100.62605 30103 ft 427 kts 180°
2026-04-26 11:04 11.01654 100.62529 29874 ft 425 kts 180°
2026-04-26 11:04 10.98717 100.62455 29530 ft 421 kts 180°
2026-04-26 11:05 10.95798 100.62383 29109 ft 418 kts 180°
2026-04-26 11:05 10.92900 100.62312 28702 ft 416 kts 180°
2026-04-26 11:05 10.90011 100.62241 28303 ft 414 kts 180°
2026-04-26 11:05 10.87179 100.62172 27914 ft 412 kts 180°
2026-04-26 11:06 10.84320 100.62103 27506 ft 410 kts 180°
2026-04-26 11:06 10.81475 100.62029 27097 ft 408 kts 180°
2026-04-26 11:06 10.78644 100.61953 26690 ft 406 kts 180°
2026-04-26 11:06 10.75824 100.61880 26271 ft 405 kts 180°
2026-04-26 11:07 10.73015 100.61810 25858 ft 403 kts 180°
2026-04-26 11:07 10.70218 100.61742 25422 ft 402 kts 180°
2026-04-26 11:07 10.67427 100.61672 24986 ft 401 kts 180°
2026-04-26 11:07 10.64643 100.61602 24544 ft 400 kts 180°
2026-04-26 11:08 10.61864 100.61532 24092 ft 399 kts 180°
2026-04-26 11:08 10.59130 100.61464 23649 ft 398 kts 180°
2026-04-26 11:08 10.56357 100.61394 23148 ft 398 kts 180°
2026-04-26 11:08 10.53603 100.61326 22687 ft 394 kts 180°
2026-04-26 11:09 10.50873 100.61258 22247 ft 390 kts 180°
2026-04-26 11:09 10.48170 100.61188 21807 ft 386 kts 180°
2026-04-26 11:09 10.45495 100.61121 21371 ft 383 kts 180°
2026-04-26 11:09 10.42847 100.61057 20942 ft 379 kts 180°
2026-04-26 11:10 10.40222 100.60993 20505 ft 376 kts 181°
2026-04-26 11:10 10.37653 100.60931 20081 ft 373 kts 180°
2026-04-26 11:10 10.35070 100.60870 19654 ft 370 kts 180°
2026-04-26 11:10 10.32508 100.60808 19229 ft 367 kts 180°
2026-04-26 11:11 10.29966 100.60746 18810 ft 364 kts 181°
2026-04-26 11:11 10.27444 100.60684 18390 ft 361 kts 181°
2026-04-26 11:11 10.24941 100.60622 17945 ft 358 kts 181°
2026-04-26 11:11 10.22461 100.60560 17509 ft 354 kts 181°
2026-04-26 11:12 10.20041 100.60501 17103 ft 350 kts 181°
2026-04-26 11:12 10.17621 100.60443 16702 ft 346 kts 181°
2026-04-26 11:12 10.15225 100.60386 16301 ft 343 kts 180°
2026-04-26 11:12 10.12849 100.60331 15906 ft 340 kts 181°
2026-04-26 11:13 10.10499 100.60277 15511 ft 337 kts 180°
2026-04-26 11:13 10.08166 100.60221 15121 ft 334 kts 180°
2026-04-26 11:13 10.05849 100.60165 14747 ft 332 kts 180°
2026-04-26 11:13 10.03551 100.60107 14357 ft 330 kts 181°
2026-04-26 11:14 10.01264 100.60047 13976 ft 328 kts 180°
2026-04-26 11:14 9.99022 100.59989 13583 ft 326 kts 180°
2026-04-26 11:14 9.96763 100.59933 13180 ft 324 kts 180°
2026-04-26 11:14 9.94524 100.59878 12796 ft 320 kts 180°
2026-04-26 11:15 9.92304 100.59826 12416 ft 318 kts 180°
2026-04-26 11:15 9.90101 100.59775 12040 ft 315 kts 180°
2026-04-26 11:15 9.87916 100.59724 11667 ft 313 kts 180°
2026-04-26 11:15 9.85743 100.59669 11293 ft 311 kts 180°
2026-04-26 11:16 9.83595 100.59613 11025 ft 306 kts 180°
2026-04-26 11:16 9.81497 100.59350 10694 ft 305 kts 193°
2026-04-26 11:16 9.79571 100.58518 10327 ft 307 kts 211°
2026-04-26 11:16 9.77921 100.57150 9946 ft 308 kts 224°
2026-04-26 11:17 9.76427 100.55597 9608 ft 305 kts 224°
2026-04-26 11:17 9.74941 100.54061 9233 ft 304 kts 224°
2026-04-26 11:17 9.73458 100.52536 8827 ft 303 kts 224°
2026-04-26 11:17 9.72050 100.50965 8433 ft 303 kts 233°
2026-04-26 11:18 9.71124 100.49061 8076 ft 303 kts 252°
2026-04-26 11:18 9.70837 100.46973 7872 ft 298 kts 271°
2026-04-26 11:18 9.71093 100.44919 7794 ft 298 kts 279°
2026-04-26 11:18 9.71427 100.42854 7683 ft 297 kts 279°
2026-04-26 11:19 9.71759 100.40794 7571 ft 296 kts 279°
2026-04-26 11:19 9.72090 100.38732 7465 ft 296 kts 278°
2026-04-26 11:19 9.72418 100.36676 7357 ft 295 kts 278°
2026-04-26 11:19 9.72746 100.34620 7251 ft 295 kts 278°
2026-04-26 11:20 9.73076 100.32564 7149 ft 296 kts 278°
2026-04-26 11:20 9.73295 100.31203 7079 ft 295 kts 278°
2026-04-26 11:20 9.73515 100.28432 6713 ft 298 kts 269°
2026-04-26 11:20 9.73521 100.26353 6381 ft 297 kts 268°
2026-04-26 11:21 9.73517 100.24272 6035 ft 294 kts 268°
2026-04-26 11:21 9.73512 100.22211 5730 ft 291 kts 268°
2026-04-26 11:21 9.73507 100.20175 5440 ft 288 kts 267°
2026-04-26 11:21 9.73502 100.18156 5150 ft 285 kts 268°
2026-04-26 11:22 9.73502 100.16164 4862 ft 281 kts 268°
2026-04-26 11:22 9.73502 100.14193 4574 ft 278 kts 268°
2026-04-26 11:22 9.73401 100.12282 4257 ft 265 kts 254°
2026-04-26 11:22 9.72649 100.10687 3950 ft 248 kts 227°
2026-04-26 11:23 9.71354 100.09630 3636 ft 234 kts 203°
2026-04-26 11:23 9.69902 100.08961 3299 ft 227 kts 201°
2026-04-26 11:23 9.68476 100.08310 2961 ft 222 kts 201°
2026-04-26 11:23 9.67093 100.07676 2643 ft 214 kts 201°
2026-04-26 11:24 9.65757 100.07063 2331 ft 207 kts 201°
2026-04-26 11:24 9.64461 100.06466 2040 ft 200 kts 201°
2026-04-26 11:24 9.63235 100.05901 1736 ft 189 kts 201°
2026-04-26 11:24 9.62014 100.05579 1439 ft 174 kts 179°
2026-04-26 11:25 9.60906 100.05656 1396 ft 153 kts 172°
2026-04-26 11:25 9.59869 100.05758 1310 ft 147 kts 172°
2026-04-26 11:25 9.58837 100.05859 915 ft 151 kts 171°
2026-04-26 11:25 9.57790 100.05958 545 ft 151 kts 170°
2026-04-26 11:26 9.56765 100.06041 342 ft 143 kts 173°
2026-04-26 11:26 9.55778 100.06140 138 ft 141 kts 171°
2026-04-26 11:26 9.54829 100.06236 55 ft 125 kts 170°
2026-04-26 11:26 9.54236 100.06303 53 ft 43 kts 174°
2026-04-26 11:27 9.53995 100.06323 53 ft 31 kts 175°
2026-04-26 11:27 9.53877 100.06312 53 ft 13 kts 176°
2026-04-26 11:27 9.53841 100.06340 53 ft 8 kts 76°
2026-04-26 11:27 9.53894 100.06341 52 ft 9 kts 340°
2026-04-26 11:28 9.53965 100.06326 53 ft 12 kts 354°
2026-04-26 11:28 9.54052 100.06318 50 ft 14 kts 354°
2026-04-26 11:28 9.54154 100.06307 53 ft 16 kts 354°
2026-04-26 11:28 9.54272 100.06296 53 ft 18 kts 354°
2026-04-26 11:29 9.54403 100.06283 53 ft 20 kts 354°
2026-04-26 11:29 9.54550 100.06269 53 ft 22 kts 355°
2026-04-26 11:29 9.54712 100.06252 51 ft 24 kts 354°
2026-04-26 11:29 9.54881 100.06237 50 ft 21 kts 355°
2026-04-26 11:30 9.54978 100.06228 53 ft 7 kts 356°
2026-04-26 11:30 9.55004 100.06246 50 ft 8 kts 55°
2026-04-26 11:30 9.55027 100.06303 51 ft 2 kts 39°
2026-04-26 11:30 9.55040 100.06308 53 ft 3 kts 12°
2026-04-26 11:31 9.55063 100.06306 53 ft 4 kts 354°
2026-04-26 11:31 9.55097 100.06302 53 ft 5 kts 354°
2026-04-26 11:31 9.55115 100.06309 53 ft 2 kts 51°
2026-04-26 11:31 9.55119 100.06322 51 ft 1 kts 73°
2026-04-26 11:32 9.55121 100.06332 52 ft 1 kts 80°
2026-04-26 11:32 9.55122 100.06338 53 ft 0 kts 82°